User: anonymous   Login
Location: Bremen
(53.0793°N, 8.8017°E)
Time: 02:42:47
(UTC+02:00)
Language:

Explorer 11/Cluster Stage 4 - Orbit

View from above orbital plane
View from above orbital plane
View from above satellite
View from above satellite

Ground track
Ground track

The orbit data is extracted from the following two-line orbital elements,

1 00107U 61013A   24107.54685676  .00006370  00000-0  80597-3 0  9998
2 00107  28.7880 178.8132 0522767 330.8728  26.3613 14.14932349163958
Epoch (UTC): 16 April 2024 13:07:28
Eccentricity: 0.0522767
inclination: 28.7880°
perigee height: 465 km
apogee height: 1220 km
right ascension of ascending node: 178.8132°
argument of perigee: 330.8728°
revolutions per day: 14.14932349
mean anomaly at epoch: 26.3613°
orbit number at epoch: 16395

The dashed part of the orbit path shows where the satellite is in the earth's shadow,  

DLR